Regional Weather Roundup
Issued by NWS Midland/Odessa, TX

Skip options and go directly to product.
Home | Oldest Version | Previous Version | Current Version | All | Text Only | Save Text | Print | Product List | Glossary On

Skip product version selection by date and time.   
956
ASUS44 KMAF 281410
RWRMAF
MIDLAND AREA WEATHER ROUNDUP
NATIONAL WEATHER SERVICE MIDLAND TX
800 AM CST WED JAN 28 2015

...IN SOUTHWEST TEXAS AND SOUTHEAST NEW MEXICO...

CITY           SKY/WX    TMP DP  RH WIND       PRES   REMARKS
ALPINE         PTCLDY    50  44  78 W5        30.30R
ANDREWS        FAIR      51  40  65 W7        30.15R
ARTESIA        MOCLDY    39  39 100 NW6       30.17R WCI  35
BIG SPRING     CLEAR     43  36  75 SE8       30.16S WCI  39
CARLSBAD       PTCLDY    43  35  73 N3        30.14S
DRYDEN           N/A     50  40  68 W5        30.15R
FORT STOCKTON  CLEAR     51  44  77 SW10      30.18R
GUAD PASS      MOCLDY    49  39  68 SW14      30.24R
HOBBS          CLEAR     45  39  81 SW8       30.16R
MARFA          PTCLDY    36  34  93 NE6       30.27S WCI  31
MIDLAND AIRPK  CLEAR     48  40  73 W5        30.15R
MIDLAND INTL   CLEAR     49  41  74 SW7       30.14S
ODESSA         CLEAR     44  36  73 S6        30.15R
PECOS          CLEAR     39  37  91 CALM      30.17R
PRESIDIO       FAIR      48  44  85 N5        30.20S
SEMINOLE       CLEAR     46  38  74 W10       30.15S
SNYDER         CLEAR    N/A N/A N/A SW6       30.13R
WINK           CLEAR     39  33  79 CALM      30.15R
$$
...OTHER STATIONS IN TEXAS...

CITY           SKY/WX    TMP DP  RH WIND       PRES   REMARKS
ABILENE        CLEAR     52  37  56 S8        30.10S
AMARILLO       PTCLDY    51  36  56 SW14      30.03R
AUSTIN         PTCLDY    43  39  86 CALM      30.16R
BROWNSVILLE    FOG       55  54  96 SE3       30.18R VSB<1/4
CORPUS CHRISTI FOG       46  45  96 S6        30.17R VSB 1/4
DALLAS FTW     PTCLDY    50  41  71 S8        30.10R
DEL RIO        CLEAR     46  38  73 W5        30.13R
EL PASO        PTCLDY    44  38  79 NE3       30.21R
HOUSTON INT    PTCLDY    47  46  97 SE3       30.18R
LUBBOCK        PTCLDY    39  35  86 W8        30.10S WCI  33
SAN ANGELO     CLEAR     44  37  76 W3        30.14R
SAN ANTONIO    PTCLDY    45  38  76 NW6       30.16R
WACO           CLEAR     41  38  89 CALM      30.14R
WICHITA FALLS  NOT AVBL
$$
...OTHER LOCATIONS IN NEW MEXICO...

CITY           SKY/WX    TMP DP  RH WIND       PRES   REMARKS
ALAMAGORDO     MOCLDY    39  34  81 CALM      30.24F
ALBUQUERQUE    PTCLDY    35  29  78 SE5       30.27R WCI  31
CANNON AFB     MOCLDY    45  36  70 W16       30.09F WCI  37
CLOVIS         MOCLDY    48  36  61 W21       30.07F
HOLLOMAN AFB   MOCLDY    36  34  93 NE6       30.23R WCI  31
ROSWELL        CLOUDY    36  33  89 CALM      30.17R
RUIDOSO        MOCLDY    46  34  61 W17G31    30.26R WCI  39
SANTA FE       MOCLDY    36  31  82 N13       30.25R WCI  27
TRUTH OR CONSE CLEAR     40  33  76 CALM      30.26R
TUCUMCARI      MOCLDY    49  36  61 W13       30.04R
$$

USA.gov is the U.S. government's official web portal to all federal, state and local government web resources and services.